Location: Göllsdorf
(48.1615°N, 8.6575°E)
Time: 20:05:40
(UTC+00:00)

Daily predictions for brighter satellites

Satellite Brightness Start Highest point End
(mag) Time Altitude Azimuth Time Altitude Azimuth Time Altitude Azimuth
Cosmos 1624 Rocket 4.1 18:05:01 10° S 18:10:11 57° ESE 18:15:25 10° NNE
Cosmos 1470 Rocket 3.6 18:06:52 10° S 18:11:18 69° E 18:15:47 10° NNE
Cosmos 2016 Rocket 4.5 18:08:00 10° N 18:13:39 38° ENE 18:19:18 10° SE
NOSS 0 Rocket 4.5 18:08:20 10° NNW 18:14:11 42° NE 18:20:00 10° ESE
Cosmos 1420 Rocket 4.0 18:11:24 10° S 18:16:32 61° ESE 18:21:41 10° NNE
Cosmos 2173 Rocket 4.1 18:12:37 10° N 18:18:58 63° ENE 18:25:17 10° SSE
Okean-O 3.8 18:16:01 10° ESE 18:19:32 24° ENE 18:23:04 10° N
Cosmos 1263 4.3 18:17:22 10° S 18:20:53 67° E 18:23:56 10° NNE
Timation 1 Rocket 4.4 18:16:39 10° S 18:22:30 57° ESE 18:28:24 10° NE
Okean O Rocket 1.6 18:23:16 10° SSE 18:27:40 68° ENE 18:32:02 10° N
DMSP B5D1-3 4.5 18:23:18 10° NNE 18:28:29 75° ESE 18:33:36 10° S
Cosmos 2242 Rocket 4.1 18:25:02 10° N 18:29:23 41° ENE 18:33:41 10° SE
Cosmos 2100 Rocket 4.0 18:23:07 10° N 18:29:32 78° E 18:35:51 10° SSE
YAOGAN 1 3.2 18:25:35 10° S 18:29:50 60° W 18:34:07 10° NNW
GEOS 3 Rocket 3.7 18:24:40 10° NE 18:30:04 73° SE 18:35:27 10° SSW
CSL-04 Rocket 4.1 18:26:52 10° SE 18:32:07 45° ENE 18:37:22 10° N
ISS -3.1 18:29:07 10° W 18:32:25 52° N 18:35:42 10° ENE
In-Cosmos 22 4.3 18:27:16 10° NNW 18:32:57 87° W 18:38:42 10° S
USA 215 3.7 18:26:39 10° NE 18:33:06 64° NNW 18:39:32 10° WSW
EXPRESS MD2 4.1 18:32:39 10° W 18:34:26 20° SSW 18:36:12 10° SSE
Cosmos 676 Rocket 4.0 18:29:20 10° NNW 18:34:34 88° WSW 18:39:50 10° SSE
SL-27 R/B 2.1 18:31:24 10° SSW 18:34:41 76° ESE 18:37:57 10° NNE
Cosmos 1452 Rocket 4.2 18:30:14 10° SSE 18:34:48 31° E 18:39:24 10° NE
KORONAS-FOTON 3.8 18:31:45 10° N 18:35:34 89° WSW 18:39:23 10° S
Cosmos 2237 Rocket 2.9 18:33:44 10° NNW 18:38:57 37° NE 18:43:20 14° ESE
Exosat Rocket 3.8 18:35:49 10° SSW 18:40:58 82° ESE 18:47:37 10° NNE
USA 186 1.8 18:41:07 10° SSE 18:44:08 53° ENE 18:47:12 10° N
Okean 3 4.0 18:44:30 10° NNW 18:48:40 63° W 18:52:50 10° S
Meteor 1-21 4.3 18:43:02 10° NNW 18:48:41 88° W 18:54:21 10° S
Cosmos 1741 Rocket 4.2 18:45:11 10° NNW 18:50:18 51° ENE 18:54:39 14° SE
CZ-4B R/B 4.0 18:47:59 10° S 18:53:34 57° W 18:59:08 10° NNW
Cosmos 1707 3.8 18:50:05 10° NNW 18:53:44 46° W 18:57:22 10° SSW
IRS-1C Rocket 4.5 18:50:13 11° SE 18:54:55 45° ENE 18:59:56 10° N
Cosmos 2322 4.2 18:49:25 10° NNW 18:55:02 63° WSW 19:00:35 10° SSE
Okean 1-7 3.8 18:50:57 10° NNW 18:55:15 56° W 18:59:29 10° S
Cosmos 1674 3.6 18:54:33 10° NNW 18:58:09 50° W 19:01:46 10° S
Cosmos 1805 3.4 18:54:36 10° SSE 18:58:16 47° E 19:01:57 10° NNE
Lacrosse 5 rocket 2.5 18:54:51 10° S 18:58:18 24° SE 18:59:08 22° ESE
Cosmos 1980 3.9 18:54:52 10° NNW 19:00:26 53° ENE 19:04:23 19° SE
Cosmos 2219 Rocket 3.3 18:56:11 10° NW 19:01:34 45° WSW 19:06:55 10° S
Cosmos 1933 Rocket 4.1 18:58:22 10° SSW 19:02:38 62° W 19:06:58 10° N
Cosmos 1975 3.0 18:58:46 10° SSW 19:02:42 75° W 19:06:42 10° N
SJ-6B 2.9 18:59:04 10° S 19:03:00 74° WSW 19:06:52 10° NNW
Cosmos 2333 Rocket 4.1 18:58:27 10° NW 19:03:23 30° WSW 19:08:18 10° SSW
Cosmos 1726 1.9 19:04:17 10° S 19:07:43 58° E 19:11:12 10° NNE
Cosmos 1864 Rocket 4.5 19:01:56 10° N 19:08:11 89° E 19:14:19 10° S
Cosmos 2233 Rocket 4.0 19:02:07 10° N 19:08:12 59° ENE 19:14:14 10° SSE
CSL-04 Debris 4.2 19:03:02 10° SSE 19:08:27 88° WSW 19:13:57 10° NNW
Ariane Rocket 4.2 19:09:42 21° E 19:11:08 23° ENE 19:15:05 10° N
BREEZE-M DEB (TANK) 4.1 19:09:44 10° W 19:12:09 16° SW 19:13:50 10° S
Cosmos 1869 Rocket 3.4 19:07:55 10° S 19:12:14 87° E 19:16:35 10° N
Cosmos 2061 Rocket 4.0 19:05:55 10° N 19:12:24 81° E 19:18:49 10° SSE
COSMOS 2428 3.3 19:09:09 10° NW 19:14:46 58° WSW 19:20:22 10° S
Landsat 5 3.7 19:11:48 10° NNE 19:15:28 39° E 19:17:14 25° SSE
SL-14 R/B 3.1 19:12:56 10° N 19:16:48 79° ENE 19:19:24 20° SSE
USA 281 4.4 19:14:18 10° NNE 19:20:30 45° NW 19:26:39 10° WSW
Cosmos 2297 Rocket 2.4 19:15:22 10° S 19:20:41 44° ESE 19:26:03 10° NE
NOSS 3-2 (A) 4.4 19:15:13 10° NW 19:22:40 68° SW 19:30:28 13° SSE
Cosmos 1867 3.5 19:19:02 10° SSW 19:24:23 62° ESE 19:29:47 10° NE
Resurs 01 Rocket 1.6 19:25:55 29° SE 19:28:03 66° ENE 19:32:27 10° N
Cosmos 1725 Rocket 4.3 19:23:16 10° NNW 19:29:25 69° W 19:35:32 10° S
Cosmos 1733 3.9 19:28:44 10° SSW 19:32:26 53° WNW 19:36:08 10° N
CZ-4C R/B 3.7 19:26:36 10° NW 19:32:41 36° NNE 19:36:50 22° E
CENTAUR R/B 3.7 19:25:03 10° NW 19:33:09 60° WSW 19:41:25 12° SSE
NOSS 3-2 (C) 4.0 19:25:49 10° NW 19:33:17 89° NE 19:38:47 25° SE
Cosmos 1271 Rocket 4.2 19:36:59 23° NE 19:36:59 23° NE 19:38:43 10° NNE
MOS 1 4.3 19:33:10 28° SE 19:36:13 65° ENE 19:41:53 10° N
Cosmos 2227 Rocket 2.6 19:31:24 10° S 19:36:32 37° ESE 19:41:41 10° NE
IRS-P2 Rocket 4.5 19:33:49 28° SSE 19:36:34 72° ENE 19:41:48 10° NNW
CZ-4 R/B 4.1 19:34:39 10° SW 19:37:20 18° W 19:40:03 10° NW
Terra 3.3 19:42:45 21° NE 19:42:45 21° NE 19:45:52 10° NNE
Iridium 4 Rocket 4.0 19:38:57 10° NNW 19:42:58 45° W 19:46:56 10° SSW
Geosat 4.1 19:40:50 29° SSE 19:43:25 77° WSW 19:48:29 10° NNW
USA 238 DEB 3.9 19:39:35 10° NW 19:46:55 88° NE 19:50:50 33° SE
USA 238 3.9 19:39:41 10° NW 19:47:01 88° NE 19:50:55 33° SE
MetOp-A 4.1 19:46:21 42° SE 19:48:02 64° ENE 19:53:11 10° N
SL-16 R/B 2.7 19:43:04 10° NNW 19:48:28 41° NE 19:49:39 37° E
Cosmos 1674 Rocket 3.5 19:48:22 10° N 19:52:42 60° ENE 19:52:42 60° ENE
Cosmos 1733 Rocket 2.9 19:53:01 43° S 19:54:25 86° E 19:58:46 10° N
Okean-O 3.7 19:52:19 15° SSW 19:55:44 43° W 19:59:59 10° NNW
CARTOSAT-1 3.4 19:58:45 71° SSE 19:59:12 86° ENE 20:03:32 10° NNW
Meteor 2-13 Rocket 4.3 19:53:08 10° S 19:59:17 80° E 20:05:28 10° NNE
SPOT 1/Viking Rocket 4.0 19:55:57 21° S 19:59:24 59° W 20:04:34 10° NNW
Cosmos 1110 Rocket 4.2 19:56:21 10° SSW 20:01:32 71° WNW 20:06:44 10° NNE
SPOT 5 3.3 20:02:23 42° NE 20:02:23 42° NE 20:06:34 10° N
Cosmos 1378 Rocket 3.4 19:59:30 10° N 20:03:56 82° E 20:04:03 81° ESE
Okean O Rocket 4.5 20:02:00 10° WSW 20:04:26 14° W 20:06:53 10° NW
Cosmos 2221 Rocket 3.5 20:00:33 10° N 20:05:00 85° W 20:05:26 72° S
Cosmos 1464 Rocket 4.1 20:01:02 10° N 20:07:19 58° ENE 20:08:26 51° ESE
BREEZE-M DEB (TANK) 3.2 20:04:29 10° WNW 20:08:22 54° W 20:08:22 54° W
ISS -2.4 20:06:16 10° WNW 20:08:42 38° NW 20:08:42 38° NW
USA 215 4.2 20:10:32 15° ENE 20:15:33 42° N 20:21:36 10° WNW
ADEOS Rocket 3.4 20:15:26 46° E 20:16:18 49° ENE 20:22:59 10° N
Cosmos 1766 4.1 20:17:37 46° W 20:17:56 47° WNW 20:21:38 10° N
Cosmos 1891 Rocket 4.3 20:12:01 10° N 20:18:12 85° E 20:19:48 53° SSE
Meteor 1-22 Rocket 4.3 20:20:16 63° ESE 20:20:41 65° E 20:26:42 10° NNE
Cosmos 2237 Rocket 3.1 20:17:47 10° NW 20:23:06 43° WSW 20:25:11 31° SSW
H-2A R/B 2.8 20:23:55 65° N 20:23:55 65° N 20:27:44 10° NNW
Meteor 1-15 Rocket 4.2 20:24:42 58° S 20:25:56 86° E 20:31:51 10° NNE
MetOp-B 4.3 20:29:53 61° SSW 20:30:40 70° WSW 20:36:02 10° NNW
Cosmos 2346 Rocket 4.4 20:31:21 53° S 20:32:56 88° WNW 20:39:11 10° N
ATLAS CENTAUR R/B 4.2 20:18:30 10° WSW 20:33:47 73° NNW 20:40:10 13° NE
Lacrosse 5 rocket 3.1 20:32:38 10° WSW 20:34:34 25° WSW 20:34:34 25° WSW
Cosmos 968 Rocket 4.1 20:31:55 10° NNW 20:36:53 49° WSW 20:37:26 47° SW
SJ 16-02 2.8 20:33:41 10° N 20:36:14 30° N 20:36:14 30° N
Meteor 1-12 Rocket 4.4 20:38:17 49° SSW 20:39:51 73° WNW 20:45:36 10° N
ERS-1 Rocket 3.3 20:44:49 59° N 20:44:49 59° N 20:48:54 10° NNW
FALCON 9 R/B 4.0 20:29:36 10° WSW 20:44:20 33° SSW 20:45:16 32° SSW
Meteor 1-24 Rocket 3.8 20:40:59 10° NNW 20:46:55 76° W 20:47:15 74° SW
Ariane Rocket 3.4 20:49:52 56° W 20:49:52 56° W 20:54:44 10° NNW
BREEZE-M DEB (TANK) 3.4 20:45:54 10° WNW 20:50:43 62° W 20:50:43 62° W
Cosmos 1943 4.1 20:50:11 10° NNW 20:54:31 37° NNE 20:54:31 37° NNE
Meteor 2-15 Rocket 4.4 20:50:49 10° NNW 20:56:58 76° W 20:57:03 76° WSW
Spot 2 Rocket 4.1 21:01:35 55° NW 21:01:35 55° NW 21:05:39 10° NNW
Cosmos 2297 Rocket 3.6 20:59:40 10° WSW 21:04:51 36° NW 21:10:04 10° NNE
Resurs 01 Rocket 4.2 21:03:26 13° WSW 21:04:58 15° W 21:07:31 10° NW
Cosmos 2034 Rocket 4.0 21:02:02 10° NNW 21:07:51 74° WNW 21:07:51 74° WNW
SPOT 3 Rocket 4.4 21:12:40 46° WNW 21:12:40 46° WNW 21:17:01 10° NNW
Cosmos 2219 3.8 21:13:55 51° NNW 21:13:55 51° NNW 21:18:28 10° NNE
ATLAS 3B R/B 3.9 21:09:22 10° NW 21:16:14 37° NNE 21:17:41 34° NE
Terra 3.3 21:21:29 34° NW 21:21:29 34° NW 21:24:19 10° NNW
Cosmos 2227 Rocket 3.3 21:15:19 11° WSW 21:20:31 42° NW 21:25:55 10° NNE
CZ-4C R/B 2.9 21:14:51 10° NW 21:21:59 88° WSW 21:21:59 88° WSW
SL-16 R/B 3.5 21:27:19 10° NW 21:31:31 35° W 21:31:31 35° W
USA 215 3.9 21:57:51 48° NNE 21:57:51 48° NNE 22:04:04 10° NW
ADEOS Rocket 4.3 22:02:22 36° W 22:02:22 36° W 22:08:18 10° NNW
Cosmos 2263 Rocket 4.1 22:13:19 23° NNE 22:13:19 23° NNE 22:15:22 10° NNE
SJ 16-02 4.4 22:12:51 10° NW 22:13:07 11° NW 22:13:07 11° NW
ATLAS 2AS CENTAUR R/B 4.3 22:29:02 27° NE 22:29:02 27° NE 22:32:00 10° NE
ATLAS CENTAUR R/B 4.3 22:40:18 10° WNW 22:49:36 39° N 22:49:44 39° N
ATLAS 3B R/B 3.8 23:00:10 10° NW 23:04:56 43° NW 23:04:56 43° NW
Cosmos 2344 4.3 23:11:58 10° NW 23:18:50 60° WNW 23:18:50 60° WNW
